Location: Dal�� Lhota
(48.7500°N, 14.0167°E)
Time: 23:08:03
(UTC+00:00)

Transit 2A - Pass Details

Date: 01 August 2021
Orbit: 594 x 964 km, 66.7° (Epoch: 26 September)

Event Time Altitude Azimuth Distance (km) Brightness Sun altitude
Rises 05:13:18 0° 201° (SSW) 2,830 8.6 13.9°
Reaches altitude 10° 05:15:30 10° 197° (SSW) 1,949 7.9 14.2°
Maximum altitude 05:19:46 56° 120° (ESE) 749 6.7 14.9°
Drops below altitude 10° 05:24:22 10° 42° (NE) 2,101 9.3 15.7°
Sets 05:26:49 0° 38° (NE) 3,074 9.9 16.1°
